{"data":{"norad_id":63508,"intl_designator":"2025-071R","name":"STARLINK-33809","alt_names":[],"object_type":"PAYLOAD","status":"ACTIVE","operator":null,"country":"US","launch_date":"2025-04-07","launch_site_code":"AFWTR","launch_vehicle":null,"mission":null,"orbit_class":"UNKNOWN","rcs_meters":null,"size_class":null,"mass_kg":null,"dimensions":null,"purposes":["comms"],"wikipedia_slug":null,"has_3d_model":false,"image_url":null,"decayed_at":null,"tle_current":{"epoch":"2026-05-24T23:46:32.387232Z","epoch_age_seconds":85972,"freshness":"FRESH","line1":"1 63508U 25071R   26144.99065263  .00014633  00000+0  50506-3 0  9999","line2":"2 63508  53.1603 145.3572 0001586  70.4312 289.6860 15.30208471 64398","mean_motion":15.30208471,"eccentricity":0.0001586,"inclination_deg":53.1603,"raan_deg":145.3572,"arg_perigee_deg":70.4312,"mean_anomaly_deg":289.686,"bstar":0.00050506,"rev_number":6439,"period_min":94.104824753646,"perigee_km":474.10283903014,"apogee_km":476.27671428369,"semimajor_km":6853.3267766569,"source":"CELESTRAK","updated_at":"2026-05-25T13:38:20.014787Z"}}}